Location: Coopersdale
(40.3556°N, 78.9372°W)
Time: 15:24:00
(UTC+00:00)

A-11 Canister half - Visible Passes

Search period start: 25 January 2021 00:00
Search period end: 04 February 2021 00:00
Orbit: 1524 x 1684 km, 47.3° (Epoch: 24 January)

Date Brightness Start Highest point End Pass type
(mag) Time Alt. Az. Time Alt. Az. Time Alt. Az.
25 Jan 9.0 00:34:33 10° WNW 00:44:13 78° NNE 00:47:44 46° E visible
25 Jan 10.0 02:39:52 10° WNW 02:46:03 38° W 02:46:03 38° W visible
26 Jan 9.0 00:12:53 10° WNW 00:22:32 76° NNE 00:27:38 34° ESE visible
26 Jan 9.7 02:18:11 10° WNW 02:25:59 46° WSW 02:25:59 46° WSW visible
26 Jan 9.0 23:51:14 10° WNW 00:00:50 74° NNE 00:07:39 23° ESE visible
27 Jan 9.5 01:56:30 10° WNW 02:05:44 51° SW 02:05:59 51° SW visible
27 Jan 9.1 23:29:34 10° WNW 23:39:07 72° NNE 23:47:45 15° ESE visible
28 Jan 9.5 01:34:49 10° WNW 01:44:05 53° SW 01:46:06 47° S visible
28 Jan 11.2 03:43:14 10° W 03:44:27 12° WSW 03:44:27 12° WSW visible
28 Jan 9.1 23:07:55 10° WNW 23:17:25 71° NNE 23:27:16 10° ESE visible
29 Jan 9.5 01:13:08 10° WNW 01:22:27 56° SW 01:26:20 37° SSE visible
29 Jan 11.0 03:21:07 10° W 03:24:42 15° WSW 03:24:42 15° WSW visible
29 Jan 9.1 22:46:15 10° WNW 22:55:44 69° NNE 23:05:32 10° ESE visible
30 Jan 9.4 00:51:27 10° WNW 01:00:49 58° SW 01:06:44 26° SSE visible
30 Jan 10.9 02:59:04 10° W 03:04:25 16° SW 03:05:07 16° SW visible
31 Jan 9.4 00:29:48 10° WNW 00:39:10 61° SW 00:47:19 16° SE visible
31 Jan 10.9 02:37:05 10° W 02:42:50 17° SW 02:45:43 15° SW visible
01 Feb 9.4 00:08:08 10° WNW 00:17:31 63° SW 00:27:14 10° SE visible
01 Feb 10.9 02:15:09 10° W 02:21:15 19° SW 02:26:32 12° SSW visible
01 Feb 9.4 23:46:28 10° WNW 23:55:53 66° SW 00:05:37 10° SE visible
02 Feb 10.9 01:53:16 10° W 01:59:40 20° SW 02:06:13 10° SSW visible
02 Feb 9.4 23:24:49 10° WNW 23:34:14 69° SW 23:43:58 10° SE visible
03 Feb 10.9 01:31:24 10° W 01:38:05 21° SW 01:44:55 10° S visible
03 Feb 9.4 23:03:10 10° WNW 23:12:35 71° SW 23:22:19 10° SE visible
